LUDI TANCE-4 01A

Last updated on Sun Jun 21 2026 00:03:09 GMT+0000 (Coordinated Universal Time)

1 57624U 23120A 26171.05329052 -.00000180 00000+0 00000+0 0 9993 2 57624 15.1003 193.8881 0001259 33.4484 149.7746 1.00268643 10578
UTC large
Height (km)
Speed (km/s)
/
Latitude / Longitude
Inclination (degrees)
Orbital Period (minutes)
Azimuth
Elevation
Range (km)
Doppler Factor

Next 0 passes for location: London (51.5072 / 0.1276)

No passes found over London.
LUDI TANCE-4 01A